Flag Weather past 2 weeks in Barysaw, Belarus

Now
18 °F

Light snow. Ice fog.


Feels Like: 9 °F
Forecast: 18 / 24 °F
Wind: 6 mph from Southeast

Location: Minsk

Current Time: Nov 27, 2014 at 9:55:36 AM

Latest Report: Nov 27, 2014 at 9:30 AM


Visibility: 3 mi

Pressure: 30.36 "Hg

Humidity: 93%

Dew point: 16 °F

Location of BarysawLocation

Historic Weather in Barysaw — Graph

°F

Barysaw temperature yesterday

Maximum temperature yesterday: 23 °F (at 12:00 AM)
Minimum temperature yesterday: 19 °F (at 9:30 PM)
Average temperature yesterday: 22 °F

Past Weeks' High & Low Weather Summary

 TemperatureHumidityPressure
High41 °F (Nov 14, 1:30 PM)100% (Nov 12, 9:00 AM)30.57 "Hg (Nov 12, 9:00 AM)
Low14 °F (Nov 24, 6:30 AM)59% (Nov 18, 3:00 PM)30.15 "Hg (Nov 12, 8:00 AM)
Average30 °F89%30.34 "Hg
* Reported Nov 12 8:00 AM — Nov 27 8:30 AM, Barysaw, Weather by CustomWeather, © 2014

Note: Actual official high and low records may vary slightly from our data, if they occured in-between our weather recording intervals... More about our weather records

Advertising

Barysaw weather history for previous 24 hours

 ConditionsComfort  
Time TempWeatherWind HumidityBarometerVisibility
8:30 AM
Nov 27
18 °FIce fog.3 mph100%30.36 "Hg3 mi
8:00 AM18 °FIce fog.3 mph100%30.36 "Hg3 mi
7:30 AM18 °FIce fog.1 mph93%30.36 "Hg3 mi
7:00 AM19 °FIce fog.3 mph86%30.36 "Hg3 mi
6:30 AM19 °FLow clouds.6 mph86%30.36 "Hg4 mi
6:00 AM19 °FLow clouds.3 mph86%30.36 "Hg4 mi
5:30 AM19 °FLow clouds.6 mph86%30.36 "Hg4 mi
5:00 AM19 °FLow clouds.1 mph86%30.36 "Hg4 mi
4:30 AM19 °FLow clouds.6 mph86%30.36 "Hg4 mi
4:00 AM19 °FOvercast.6 mph86%30.36 "Hg4 mi
3:30 AM19 °FOvercast.3 mph86%30.36 "Hg4 mi
3:00 AM19 °FOvercast.3 mph93%30.36 "Hg4 mi
2:30 AM19 °FOvercast.3 mph93%30.39 "Hg4 mi
2:00 AM19 °FLow clouds.3 mph93%30.39 "Hg4 mi
1:30 AM19 °FLow clouds.3 mph93%30.39 "Hg4 mi
1:00 AM19 °FLow clouds.3 mph93%30.39 "Hg4 mi
12:30 AM18 °FLow clouds.6 mph100%30.39 "Hg4 mi
12:00 AM19 °FIce fog.6 mph93%30.39 "Hg3 mi
11:30 PM
Nov 26
19 °FIce fog.8 mph93%30.39 "Hg3 mi
11:00 PM19 °FIce fog.6 mph100%30.39 "Hg3 mi
10:30 PM19 °FIce fog.6 mph100%30.39 "Hg3 mi
10:00 PM19 °FLow clouds.6 mph100%30.39 "Hg4 mi
9:30 PM19 °FLow clouds.6 mph100%30.39 "Hg4 mi
9:00 PM21 °FLow clouds.6 mph93%30.39 "Hg4 mi
8:30 PM21 °FLow clouds.6 mph93%30.39 "Hg4 mi
8:00 PM21 °FLow clouds.6 mph100%30.39 "Hg5 mi
7:30 PM21 °FLow clouds.3 mph100%30.39 "Hg5 mi
7:00 PM21 °FLow clouds.6 mph100%30.39 "Hg5 mi
6:30 PM21 °FOvercast.3 mph100%30.39 "Hg5 mi
6:00 PM23 °FOvercast.1 mph93%30.39 "Hg5 mi
5:30 PM23 °FOvercast.3 mph93%30.39 "Hg5 mi
5:00 PM23 °FLow clouds.3 mph93%30.39 "Hg5 mi
4:30 PM23 °FLow clouds.3 mph100%30.39 "Hg5 mi
4:00 PM23 °FLow clouds.1 mph100%30.39 "Hg4 mi
3:30 PM23 °FLow clouds.No wind100%30.39 "Hg4 mi
3:00 PM23 °FIce fog.No wind100%30.39 "Hg3 mi
2:30 PM23 °FIce fog.1 mph100%30.42 "Hg3 mi
2:00 PM23 °FIce fog.1 mph100%30.42 "Hg3 mi
1:30 PM23 °FIce fog.1 mph100%30.42 "Hg2 mi
1:00 PM23 °FIce fog.3 mph100%30.42 "Hg2 mi
12:30 PM23 °FIce fog.3 mph100%30.42 "Hg2 mi
12:00 PM23 °FIce fog.3 mph93%30.42 "Hg2 mi
11:45 AM21 °FIce fog.3 mph100%30.42 "Hg2 mi
11:30 AM21 °FIce fog.3 mph100%30.42 "Hg1 mi
11:00 AM21 °FIce fog.3 mph100%30.42 "Hg2 mi
10:54 AM21 °FIce fog.6 mph100%30.42 "Hg1 mi
10:30 AM21 °FIce fog.3 mph100%30.42 "Hg1 mi
10:00 AM21 °FIce fog.6 mph100%30.42 "Hg1 mi
9:30 AM21 °FIce fog.3 mph100%30.42 "Hg1 mi
9:04 AM21 °FIce fog.3 mph100%30.42 "Hg1 mi
9:00 AM21 °FIce fog.3 mph100%30.42 "Hg1 mi
Weather by CustomWeather, © 2014

See weather overviewHow to use our weather pages